#timestamp,LO_Frequency,Hit,StdDev 
1682625615.6,286046999.4,N
1682625635.4,286046998.9,N
1682625655.2,286046999.1,N
1682625675.1,286047001.2,N
1682625676.0,286047001.2,N
1682625695.8,286047001.1,N
1682625715.7,286047001.2,N
1682625735.5,286046998.1,N
1682625755.3,286046998.6,N
1682625775.2,286046999.6,N
1682625795.0,286046999.2,N
1682625795.9,286046999.2,N
1682625815.8,286046998.8,N
1682625835.6,286046998.3,N
1682625855.4,286046999.2,N
1682625875.3,286046999.3,N
1682625895.1,286046999.3,N
1682625915.9,286046999.2,N
1682625935.7,286046999.0,N
1682625955.5,286046998.7,N
1682625975.4,286046998.8,N
1682625995.2,286046998.8,N
1682626015.0,286046998.9,N
1682626015.9,286046998.9,N
1682626035.8,286046999.3,N
1682626055.6,286046999.4,N
1682626075.5,286046999.0,N
1682626095.3,286046998.4,N
1682626115.1,286047001.2,N
1682626135.9,286047000.4,N
1682626155.7,286047000.2,N
1682626175.5,286047001.0,N
1682626195.4,286047000.8,N
1682626215.2,286047000.7,N
1682626235.1,286046998.5,N
1682626236.0,286046998.5,N
1682626255.8,286047000.5,N
1682626275.6,286047000.7,N
1682626295.5,286047002.8,Y
1682626315.3,286047002.1,P
1682626335.1,286047001.9,N
1682626355.9,286047000.1,N
1682626375.7,286046999.8,N
1682626395.6,286047002.4,N
1682626415.4,286047002.4,N
1682626435.2,286046999.8,N
1682626455.1,286046999.7,N
1682626456.0,286046999.7,N
1682626475.8,286046999.8,N
1682626495.6,286047001.9,N
1682626515.5,286047002.1,N
1682626535.3,286047002.3,N
1682626555.2,286046999.7,N
1682626575.9,286047000.0,N
1682626595.7,286047002.3,N
1682626615.6,286047001.3,N
1682626635.4,286047001.7,N
1682626655.2,286047004.3,Y
1682626675.1,286047001.9,P
1682626676.0,286047001.9,P
1682626695.8,286047001.9,P
1682626715.7,286047002.1,Y
1682626735.5,286047000.3,P
1682626755.3,286047000.1,N
1682626775.2,286047000.8,N
1682626795.0,286047000.2,N
1682626795.9,286047000.2,N
1682626815.8,286047000.1,N
1682626835.6,286047000.1,N
1682626855.4,286047001.9,Y
1682626875.3,286047002.8,P
1682626895.1,286047002.5,N
1682626915.9,286047002.7,N
1682626935.7,286047001.9,N
1682626955.5,286047002.1,N
1682626975.4,286047004.0,Y
1682626995.2,286047000.2,P
1682627015.1,286047000.6,N
1682627016.0,286047000.6,N
1682627035.8,286047000.2,N
1682627055.6,286047000.3,N
1682627075.5,286047000.0,N
1682627095.3,286046999.8,N
1682627115.2,286047000.1,N
1682627135.9,286046999.7,N
1682627155.7,286047002.6,Y
1682627175.6,286047000.4,P
1682627195.4,286047000.5,P
1682627215.3,286046999.8,P
1682627235.1,286047000.0,N
1682627236.0,286047000.0,N
1682627255.8,286047000.6,N
1682627275.7,286047002.7,Y
1682627295.5,286047000.0,P
1682627315.4,286047000.2,N
1682627335.2,286046998.6,P
1682627355.0,286047000.8,N
1682627355.9,286047000.8,N
1682627375.8,286046998.6,N
1682627395.6,286046999.3,N
1682627415.4,286046999.2,N
1682627435.3,286046999.5,N
1682627455.1,286046998.2,N
1682627475.9,286047000.7,N
1682627495.7,286046998.3,N
1682627515.5,286046998.9,N
1682627535.4,286046998.2,N
1682627555.2,286046998.5,N
1682627575.0,286047001.2,N
1682627575.9,286047001.2,N
1682627595.8,286047000.0,N
1682627615.6,286046999.9,N
1682627635.4,286046999.7,N
1682627655.3,286047002.4,N
1682627675.1,286047002.8,N
1682627695.9,286047002.0,N
1682627715.7,286047002.7,N
1682627735.5,286046999.7,N
1682627755.4,286047000.0,N
1682627775.2,286046999.7,N
1682627795.0,286046999.8,N
1682627795.9,286046999.8,N
1682627815.8,286046999.9,N
1682627835.6,286046999.8,N
1682627855.5,286047002.4,N
1682627875.3,286047002.5,N
1682627895.1,286046999.7,N
1682627915.9,286047001.6,N
1682627935.7,286047003.8,N
1682627955.5,286047001.4,N
1682627975.4,286047001.4,N
1682627995.2,286047001.9,N
1682628015.1,286046999.8,N
1682628016.0,286046999.8,N
1682628035.8,286047002.0,N
1682628055.6,286047003.7,N
1682628075.5,286047003.5,N
1682628095.3,286047003.7,N
1682628115.1,286047001.4,N
1682628135.9,286047001.7,N
1682628155.7,286047004.2,N
1682628175.6,286047001.4,N
1682628195.4,286047002.0,N
1682628215.2,286047004.3,N
1682628235.1,286047001.4,N
1682628236.0,286047001.4,N
1682628255.8,286047004.4,N
1682628275.7,286047004.0,N
1682628295.5,286047004.2,N
1682628315.3,286047004.3,N
1682628335.2,286047003.9,N
1682628355.0,286047001.3,N
1682628355.9,286047001.3,N
1682628375.7,286047001.7,N
1682628395.6,286047002.6,N
1682628415.4,286047002.3,N
1682628435.3,286047001.5,N
1682628455.1,286047002.6,N
1682628456.0,286047002.6,N
1682628475.8,286047001.4,N
1682628495.7,286047004.4,Y
1682628515.5,286047001.3,P
1682628535.3,286047002.7,P
1682628555.2,286047001.6,N
1682628575.0,286047002.3,Y
1682628575.9,286047002.3,P
1682628595.8,286046998.5,P
1682628615.6,286046999.4,N
1682628635.5,286046998.5,N
1682628655.3,286046998.1,N
1682628675.1,286046998.5,N
1682628695.9,286046998.8,N
1682628715.7,286046998.3,N
1682628735.5,286047000.6,N
1682628755.4,286047001.0,N
1682628775.2,286046998.2,N
1682628795.1,286046998.4,N
1682628796.0,286046998.4,N
1682628815.8,286046999.6,N
1682628835.6,286046998.3,N
1682628855.5,286046998.3,N
1682628875.3,286047000.8,N
1682628895.2,286047000.2,N
1682628915.9,286047000.8,N
1682628935.7,286047001.2,N
1682628955.6,286047001.1,N
1682628975.4,286046999.0,N
1682628995.3,286047001.2,N
1682629015.1,286047000.8,N
1682629016.0,286047000.8,N
1682629035.8,286047001.1,N
1682629055.7,286046998.2,N
1682629075.5,286047001.1,N
1682629095.4,286046998.6,N
1682629115.2,286046999.8,N
1682629135.0,286047000.5,N
1682629135.9,286047000.5,N
1682629155.8,286046998.1,N
1682629175.6,286046999.1,N
1682629195.4,286046998.7,N
